Temperatur und Luftfeuchte

Temperatur und Luftfeuchte

Die letzten 100 Messwerte

Nummer Datum und Zeit Sensor ID Temperatur in Celsius gef├╝hlte Temperatur Luftfeuchte in %
61133 2022-05-22 16:49:53 Terrasse 25.40 24.02 1.00
61132 2022-05-22 16:21:45 Terrasse 25.80 24.46 1.00
61131 2022-05-22 15:53:33 Terrasse 26.50 25.23 1.00
61130 2022-05-22 15:25:33 Terrasse 27.10 25.89 1.00
61129 2022-05-22 14:57:36 Terrasse 26.60 25.34 1.00
61128 2022-05-22 12:57:06 Terrasse 28.40 26.04 1.00
61127 2022-05-22 12:28:35 Terrasse 25.10 23.69 1.00
61126 2022-05-22 12:01:26 Terrasse 25.10 23.69 1.00
61125 2022-05-22 11:01:03 Terrasse 21.70 22.40 94.90
61124 2022-05-22 10:33:19 Terrasse 20.00 20.66 99.90
61123 2022-05-22 10:04:47 Terrasse 18.70 16.65 1.00
61122 2022-05-22 09:37:38 Terrasse 17.70 15.55 1.00
61121 2022-05-22 09:08:56 Terrasse 16.80 14.56 1.00
61120 2022-05-22 08:40:36 Terrasse 15.50 13.13 1.00
61119 2022-05-22 08:12:33 Terrasse 14.80 12.36 1.00
61118 2022-05-22 07:44:23 Terrasse 14.20 11.70 1.00
61117 2022-05-22 07:16:15 Terrasse 13.60 11.35 13.00
61116 2022-05-22 06:48:18 Terrasse 13.50 10.93 1.00
61115 2022-05-22 06:20:54 Terrasse 13.50 11.89 37.70
61114 2022-05-22 05:52:40 Terrasse 13.40 13.40 99.90
61113 2022-05-22 05:24:34 Terrasse 13.60 13.62 99.90
61112 2022-05-22 04:56:40 Terrasse 13.70 11.15 1.00
61111 2022-05-22 04:30:12 Terrasse 13.90 13.95 99.90
61110 2022-05-22 04:00:12 Terrasse 13.80 13.84 99.90
61109 2022-05-22 03:32:53 Terrasse 13.90 11.37 1.00
61108 2022-05-22 03:04:36 Terrasse 13.90 13.95 99.90
61107 2022-05-22 02:36:40 Terrasse 14.20 14.28 99.90
61106 2022-05-22 02:08:43 Terrasse 14.40 11.92 1.00
61105 2022-05-22 01:41:24 Terrasse 14.80 12.36 1.00
61104 2022-05-22 01:13:21 Terrasse 15.30 15.49 99.90
61103 2022-05-22 00:15:10 Terrasse 15.80 16.00 98.20
61102 2022-05-21 23:47:46 Terrasse 16.00 16.26 99.90
61101 2022-05-21 23:20:35 Terrasse 16.20 15.11 47.10
61100 2022-05-21 22:52:21 Terrasse 16.60 14.85 20.60
61099 2022-05-21 22:24:05 Terrasse 17.00 14.78 1.00
61098 2022-05-21 21:56:13 Terrasse 17.40 15.22 1.00
61097 2022-05-21 21:28:12 Terrasse 17.80 18.24 99.90
61096 2022-05-21 21:00:13 Terrasse 18.60 19.12 99.90
61095 2022-05-21 20:32:13 Terrasse 19.10 17.95 33.70
61094 2022-05-21 20:04:11 Terrasse 19.70 17.75 1.00
61093 2022-05-21 19:36:10 Terrasse 20.20 18.30 1.00
61092 2022-05-21 19:08:08 Terrasse 20.70 18.85 1.00
61091 2022-05-21 18:40:06 Terrasse 21.00 19.18 1.00
61090 2022-05-21 18:12:03 Terrasse 21.20 19.40 1.00
61089 2022-05-21 17:44:00 Terrasse 21.60 19.84 1.00
61088 2022-05-21 17:15:57 Terrasse 21.80 20.06 1.00
61087 2022-05-21 16:47:54 Terrasse 22.00 20.28 1.00
61086 2022-05-21 16:19:50 Terrasse 22.00 20.28 1.00
61085 2022-05-21 15:51:48 Terrasse 22.00 20.28 1.00
61084 2022-05-21 15:23:45 Terrasse 22.40 20.72 1.00
61083 2022-05-21 14:55:37 Terrasse 21.90 20.17 1.00
61082 2022-05-21 14:27:40 Terrasse 22.80 21.16 1.00
61081 2022-05-21 13:59:49 Terrasse 23.50 21.93 1.00
61080 2022-05-21 13:31:14 Terrasse 21.70 22.53 99.90
61079 2022-05-21 00:14:47 Terrasse 16.90 14.67 1.00
61078 2022-05-20 23:42:04 Terrasse 17.60 18.02 99.90
61077 2022-05-20 23:13:46 Terrasse 18.30 18.79 99.90
61076 2022-05-20 22:45:29 Terrasse 19.00 19.56 99.90
61075 2022-05-20 22:17:12 Terrasse 19.80 20.44 99.90
61074 2022-05-20 21:48:53 Terrasse 20.20 20.88 99.90
61073 2022-05-20 21:20:37 Terrasse 20.90 21.65 99.90
61072 2022-05-20 20:52:21 Terrasse 21.70 22.53 99.90
61071 2022-05-20 20:24:04 Terrasse 22.40 23.30 99.90
61070 2022-05-20 19:55:52 Terrasse 23.80 22.26 1.00
61069 2022-05-20 19:27:32 Terrasse 24.40 24.84 74.30
61068 2022-05-20 18:59:12 Terrasse 24.70 25.83 99.90
61067 2022-05-20 18:30:50 Terrasse 24.70 23.25 1.00
61066 2022-05-20 18:02:29 Terrasse 24.80 25.94 99.90
61065 2022-05-20 17:34:10 Terrasse 25.10 23.69 1.00
61064 2022-05-20 17:05:41 Terrasse 24.50 23.03 1.00
61063 2022-05-20 16:37:26 Terrasse 23.60 22.04 1.00
61062 2022-05-18 03:46:03 Terrasse 17.70 18.13 99.90
61061 2022-05-18 03:17:28 Terrasse 17.90 18.35 99.90
61060 2022-05-18 02:48:40 Terrasse 18.40 16.32 1.00
61059 2022-05-18 02:19:58 Terrasse 18.70 19.23 99.90
61058 2022-05-18 01:51:18 Terrasse 18.80 16.76 1.00
61057 2022-05-18 01:22:25 Terrasse 19.00 19.56 99.90
61056 2022-05-18 00:53:57 Terrasse 19.20 19.78 99.90
61055 2022-05-18 00:25:22 Terrasse 19.40 17.42 1.00
61054 2022-05-17 23:56:45 Terrasse 19.60 18.12 19.40
61053 2022-05-17 23:28:00 Terrasse 19.90 20.55 99.90
61052 2022-05-17 22:59:23 Terrasse 20.20 18.30 1.00
61051 2022-05-17 22:30:46 Terrasse 20.50 18.63 1.00
61050 2022-05-17 22:02:07 Terrasse 20.90 19.07 1.00
61049 2022-05-17 21:33:29 Terrasse 21.20 21.98 99.90
61048 2022-05-17 21:04:53 Terrasse 21.70 19.95 1.00
61047 2022-05-17 20:36:17 Terrasse 22.30 20.61 1.00
61046 2022-05-17 20:07:40 Terrasse 22.80 22.01 33.50
61045 2022-05-17 19:39:03 Terrasse 23.20 21.60 1.00
61044 2022-05-17 19:10:26 Terrasse 23.50 21.93 1.00
61043 2022-05-17 18:41:47 Terrasse 23.80 22.26 1.00
61042 2022-05-17 18:13:09 Terrasse 24.20 22.70 1.00
61041 2022-05-17 17:44:30 Terrasse 24.30 22.81 1.00
61040 2022-05-17 17:15:48 Terrasse 24.00 22.84 14.70
61039 2022-05-17 16:47:06 Terrasse 23.60 24.62 99.90
61038 2022-05-17 16:18:33 Terrasse 24.20 22.70 1.00
61037 2022-05-17 15:50:00 Terrasse 25.10 23.69 1.00
61036 2022-05-17 15:21:14 Terrasse 25.00 23.58 1.00
61035 2022-05-17 14:52:27 Terrasse 23.40 21.82 1.00
61034 2022-05-17 14:23:52 Terrasse 23.90 22.37 1.00